Weather History for Laredo, TX

Change the Weather History Date:

Wednesday, April 9, 2014

  Actual Average Record
Temperature  
Mean Temperature 75 °F 75 °F  
Max Temperature 92 °F 86 °F 108 °F (2013)
Min Temperature 57 °F 63 °F 35 °F (1973)
Degree Days  
Heating Degree Days 0 1  
Month to date heating degree days 0 9  
Since 1 July heating degree days 1090 922  
Cooling Degree Days 10 10  
Month to date cooling degree days 101 85  
Year to date cooling degree days 349 343  
Growing Degree Days 24 (Base 50)    
Moisture  
Dew Point 39 °F    
Average Humidity 29    
Maximum Humidity 51    
Minimum Humidity 15    
Precipitation  
Precipitation 0.00 in 0.04 in 1.10 in (1956)
Month to date precipitation 0.03 0.32  
Year to date precipitation 1.32 3.28  
Sea Level Pressure  
Sea Level Pressure 30.14 in    
Wind  
Wind Speed 12 mph (SSE)    
Max Wind Speed 22 mph    
Max Gust Speed 25 mph    
Visibility 10 miles    
Events      
T = Trace of Precipitation, MM = Missing Value Source: NWS Daily Summary

Daily Weather History Graph

Daily Weather History Graph

Search for Another Location

Airport:

Trip Planner

Search our weather history database for the weather conditions in past years. The results will help you decide how hot, cold, wet, or windy it might be!

Date:

Astronomy

Apr. 09, 2014 Rise Set
Actual Time 7:19 AM CDT 7:59 PM CDT
Civil Twilight 6:55 AM CDT 8:23 PM CDT
Nautical Twilight 6:28 AM CDT 8:51 PM CDT
Astronomical Twilight 5:59 AM CDT 9:19 PM CDT
Moon 3:14 PM CDT (4/9) 3:42 AM CDT (4/9)
Length of Visible Light 13h 27m
Length of Day
12h 40m
Waxing Gibbous, 72% of the Moon is Illuminated
Apr 9
Waxing Gibbous
Apr 15
Full
Apr 22
Last Quarter
Apr 29
New
May 6
First Quarter

Hourly Weather History & Observations

Time (CDT) Temp. Dew Point Humidity Pressure Visibility Wind Dir Wind Speed Gust Speed Precip Events Conditions
12:56 AM 63.9 °F 31.1 °F 29% 30.19 in 10.0 mi Calm Calm - N/A   Clear
1:56 AM 59.0 °F 32.9 °F 37% 30.19 in 10.0 mi East 4.6 mph - N/A   Clear
2:56 AM 57.9 °F 36.0 °F 44% 30.19 in 10.0 mi Calm Calm - N/A   Clear
3:56 AM 59.9 °F 32.9 °F 36% 30.19 in 10.0 mi East 4.6 mph - N/A   Clear
4:56 AM 57.9 °F 30.0 °F 35% 30.19 in 10.0 mi SE 6.9 mph - N/A   Clear
5:56 AM 61.9 °F 37.9 °F 41% 30.19 in 10.0 mi SSE 12.7 mph - N/A   Clear
6:56 AM 59.9 °F 39.9 °F 48% 30.20 in 10.0 mi SSE 11.5 mph - N/A   Clear
7:56 AM 59.9 °F 41.0 °F 50% 30.22 in 10.0 mi SE 6.9 mph - N/A   Clear
8:56 AM 66.9 °F 41.0 °F 39% 30.22 in 10.0 mi SSE 11.5 mph - N/A   Clear
9:56 AM 74.8 °F 39.9 °F 28% 30.23 in 10.0 mi SSE 13.8 mph - N/A   Clear
10:56 AM 81.9 °F 41.0 °F 23% 30.23 in 10.0 mi South 16.1 mph - N/A   Clear
11:56 AM 83.8 °F 39.9 °F 21% 30.21 in 10.0 mi SSE 19.6 mph 25.3 mph N/A   Clear
12:56 PM 86.9 °F 37.9 °F 18% 30.19 in 10.0 mi SSE 18.4 mph - N/A   Clear
1:56 PM 88.9 °F 36.9 °F 16% 30.15 in 10.0 mi SE 15.0 mph 23.0 mph N/A   Clear
2:56 PM 90.9 °F 38.8 °F 16% 30.11 in 10.0 mi South 10.4 mph - N/A   Clear
3:56 PM 90.9 °F 38.8 °F 16% 30.07 in 10.0 mi SSE 16.1 mph 21.9 mph N/A   Clear
4:56 PM 90.9 °F 36.9 °F 15% 30.05 in 10.0 mi SE 15.0 mph 18.4 mph N/A   Clear
5:56 PM 90.0 °F 39.9 °F 17% 30.04 in 10.0 mi South 13.8 mph 24.2 mph N/A   Clear
6:56 PM 88.0 °F 41.0 °F 19% 30.03 in 10.0 mi SSE 15.0 mph 24.2 mph N/A   Clear
7:56 PM 84.9 °F 39.9 °F 20% 30.05 in 10.0 mi SE 15.0 mph - N/A   Clear
8:56 PM 81.0 °F 39.9 °F 23% 30.06 in 10.0 mi SE 11.5 mph - N/A   Clear
9:56 PM 77.9 °F 43.0 °F 29% 30.08 in 10.0 mi SE 10.4 mph - N/A   Clear
10:56 PM 75.9 °F 50.0 °F 40% 30.09 in 10.0 mi SE 16.1 mph - N/A   Clear
11:56 PM 73.9 °F 52.0 °F 46% 30.09 in 10.0 mi SSE 16.1 mph - N/A   Clear